QIANFAN-2 (60380 NORAD) Tracking and Keplerian Element Data

This shows tracking and keplerian element data for the satellite.

Feedback or suggestion? Click here.




ElementValue
Catalog60380
NameQIANFAN-2
Epoch Orbit959
Epoch Day286.54773984
Epoch Year2024
RAAN343.4472
Inclination88.9944
Eccentricity0.0015668
Argument of Perigee11.4029
Mean Anonmoly348.7516
Mean Motion14.25323282
Decay Rate2.149E-05
L11 60380U 24140B 24286.54773984 .00002149 00000+0 90582-3 0 9999
L22 60380 88.9944 343.4472 0015668 11.4029 348.7516 14.25323282 9590



Live tracking and technical data element details for QIANFAN-2 (NORAD 60380). QIANFAN-2 can be tracked NOW for your location showing map with azimuth and elevation plus other details from your city location.







IsCatalogInMostPopularTable: catalog: 60380, numindb: 5
Update: records affected: 1



GetName: 60380 QIANFAN-2

Hit Count: updated at: Wed, 04 Dec 2024 17:55:44 GMT